Theta_e
310 309 308 309 311 312 313 313 314 314 315 316 316 319 329 333 326 317 312 312 313 313 316 319 317 313 311 309 310 311 311 310 310 312 313 312 311 311 311 312 312 311 311 311 312 314 314 313 314 315 314 313 313 313 313 312 312 317 319 317 318 320 320 317 318 321 318 314 316 316 313 312 313 312 311 311 312 312 314 317 319 322 324 329 331 324 328
310 308 308 310 311 313 313 314 314 315 315 314 317 325 331 330 328 325 316 311 313 315 316 318 315 313 311 309 309 309 309 311 312 312 314 314 312 313 312 312 313 312 311 312 312 313 314 314 315 316 316 316 314 314 315 313 313 317 319 318 316 317 321 321 320 320 320 321 325 322 314 311 312 311 310 311 311 311 313 316 322 328 324 324 326 324 326
310 308 308 310 311 313 313 313 314 315 315 314 318 324 326 326 326 326 320 312 312 314 316 318 317 315 314 311 310 310 309 310 312 312 313 314 314 315 314 313 314 314 313 313 313 314 315 315 316 317 317 317 315 315 315 314 315 317 318 320 318 317 322 326 323 318 317 323 327 321 314 312 312 310 310 310 310 311 314 316 325 329 323 321 326 325 324
310 308 308 309 311 313 313 313 314 314 314 315 317 317 322 326 323 322 323 317 313 314 315 316 317 318 319 316 311 310 310 310 312 313 313 313 314 315 314 313 314 315 316 316 314 314 315 317 318 318 317 316 314 315 316 316 317 317 315 318 322 322 323 326 328 323 322 325 324 318 315 313 311 310 310 310 310 312 313 316 321 322 319 326 333 326 322
310 308 308 309 311 312 313 313 314 314 314 315 317 316 320 325 320 318 322 320 316 316 314 314 317 317 318 316 311 310 311 311 312 313 313 314 316 317 315 314 315 316 317 317 317 316 317 317 318 317 315 316 316 318 318 317 317 316 314 319 326 325 321 319 320 320 319 319 317 313 312 312 310 311 311 310 310 311 313 314 317 317 317 326 338 331 321
311 309 308 309 310 312 313 314 314 315 314 314 318 320 320 321 319 316 317 317 318 318 313 313 316 316 318 318 313 311 312 312 312 312 314 316 317 319 316 314 316 317 317 318 318 319 320 318 317 316 315 316 319 320 318 316 317 315 314 320 323 323 320 315 314 315 314 312 313 312 311 311 311 313 312 311 311 311 312 313 315 315 315 320 326 323 320
311 309 308 309 310 312 313 314 314 315 315 313 317 321 321 322 322 321 318 317 317 315 314 315 314 316 323 322 314 311 312 312 311 312 316 316 316 320 318 314 317 318 319 321 319 318 319 317 316 316 314 314 318 319 318 316 317 315 313 317 319 321 323 318 313 316 316 314 314 313 312 312 313 313 314 313 311 310 311 312 313 314 316 318 317 319 327
311 310 308 308 310 312 313 314 314 314 315 315 315 317 320 322 321 323 325 323 321 319 319 320 316 315 322 321 315 313 313 312 312 312 315 315 313 317 317 315 317 319 322 323 319 317 318 316 315 315 312 314 318 317 315 315 317 317 313 314 316 316 320 320 317 317 317 315 314 313 313 314 313 313 314 312 312 313 312 311 311 313 316 319 317 320 331
311 310 308 308 310 311 313 314 314 314 315 315 316 315 316 316 315 319 325 325 321 320 319 320 318 316 319 319 316 315 312 311 312 312 313 314 313 316 317 316 317 320 322 321 316 317 318 314 314 314 311 313 316 316 315 314 314 316 315 315 317 316 318 323 322 317 317 316 314 314 315 313 312 314 314 313 313 315 316 316 319 320 320 321 319 322 331
312 310 308 308 309 311 313 315 314 314 314 313 316 315 315 316 315 316 323 322 317 317 317 319 319 315 315 317 316 314 313 312 314 314 313 314 314 315 319 321 319 317 317 316 313 316 317 312 312 313 311 312 314 314 316 315 312 313 314 314 318 320 319 319 319 318 319 318 315 317 316 312 315 317 314 312 313 315 322 329 330 328 326 325 324 326 329
312 311 308 308 309 310 313 315 314 315 314 313 315 315 314 317 316 318 325 322 315 317 320 321 321 317 315 316 315 314 316 317 316 314 311 312 312 314 319 324 321 315 313 312 312 314 315 312 312 313 312 313 314 313 316 317 314 315 315 314 318 321 318 317 318 319 321 320 317 317 315 314 317 317 312 313 317 320 329 335 331 328 328 328 328 327 327
312 312 309 308 309 310 312 315 315 315 314 313 314 315 314 316 314 319 330 327 316 319 322 318 317 316 315 316 316 315 317 317 316 314 313 313 314 314 316 321 321 317 312 311 314 316 315 315 318 319 316 317 319 318 318 320 317 315 315 315 316 319 318 319 320 319 320 321 319 317 317 316 315 312 311 317 321 322 328 332 327 324 325 326 327 326 324
312 312 310 308 308 309 311 314 315 315 314 314 314 314 315 316 314 318 329 329 320 321 322 316 316 318 318 318 317 315 315 316 317 317 316 316 316 316 315 315 317 315 311 313 321 324 320 320 323 323 320 322 324 322 320 320 318 316 317 316 315 318 321 321 321 319 318 319 318 316 316 316 313 313 318 323 323 323 326 330 328 324 322 323 325 325 324
312 313 312 309 308 308 310 312 314 314 315 314 314 314 315 315 316 317 323 326 323 320 320 319 320 321 319 318 319 319 318 319 319 318 317 316 316 316 315 315 314 312 311 317 326 326 321 321 324 323 322 325 326 321 319 319 317 315 316 316 315 318 321 320 318 318 317 317 317 316 314 314 316 320 322 322 321 321 324 327 328 324 320 321 323 323 323
312 313 313 310 308 308 308 311 313 314 315 314 314 314 313 314 316 317 317 324 327 322 320 320 319 318 317 319 321 321 320 321 320 320 320 320 317 315 314 314 312 310 313 319 325 324 321 323 323 321 321 323 321 319 318 317 316 315 316 318 317 317 319 318 317 318 317 316 317 318 317 316 317 319 320 318 317 318 319 323 328 325 319 318 320 322 324
312 314 313 311 309 308 308 309 311 312 314 315 314 314 313 313 315 316 315 321 327 321 316 316 317 319 318 318 318 318 319 320 321 323 326 324 320 318 316 313 311 313 319 324 324 322 322 324 321 319 320 320 317 316 317 317 317 317 316 318 319 319 320 319 316 318 317 315 317 318 317 317 318 319 319 316 315 317 318 321 327 324 317 317 319 321 323
312 314 314 312 310 309 308 308 310 312 313 314 314 314 314 313 314 315 316 320 325 325 321 317 319 323 320 315 316 319 321 321 320 321 323 321 318 318 319 318 315 316 321 325 324 321 321 320 318 318 319 316 314 315 317 317 319 319 317 319 321 321 322 320 317 318 318 316 317 317 315 317 319 318 318 317 316 317 317 320 325 322 315 316 318 320 321
312 313 314 313 311 310 308 308 310 312 313 313 314 315 314 314 314 314 316 319 325 329 326 318 317 322 320 314 316 319 319 318 319 319 320 321 320 319 320 320 317 315 319 323 323 322 321 318 317 319 318 314 313 315 316 318 320 319 318 319 320 319 319 318 317 318 318 318 317 316 317 318 318 317 318 319 317 316 317 319 321 318 315 317 318 319 319
312 313 314 314 313 311 310 309 309 310 311 312 315 315 315 315 315 314 315 318 321 325 323 314 314 319 317 315 319 320 317 318 323 322 320 321 322 320 318 318 317 316 319 322 322 321 320 318 317 318 318 316 314 315 315 316 319 319 317 318 319 318 317 317 317 318 318 318 318 318 318 317 316 317 319 319 318 318 319 318 316 315 317 318 318 317 317
313 313 313 315 314 313 311 310 309 309 310 311 314 316 315 315 315 314 315 317 318 322 321 314 313 318 316 315 320 322 319 321 324 324 322 323 323 322 320 320 320 319 318 319 319 318 319 320 317 316 317 318 316 316 316 316 317 318 318 318 318 318 318 317 317 318 317 316 317 317 318 317 315 316 319 319 319 319 317 315 315 316 317 317 316 315 315
313 313 313 314 315 314 313 311 310 310 309 310 312 314 314 315 315 314 314 314 316 320 320 314 313 315 314 314 316 317 318 320 320 321 325 325 322 321 323 324 324 321 320 320 320 318 320 322 319 316 317 317 315 315 317 319 318 316 316 317 316 316 317 318 318 317 316 316 317 318 318 317 315 316 317 318 316 316 315 316 315 314 313 313 314 313 313
312 313 313 314 314 314 314 313 312 311 310 309 310 311 312 314 315 314 315 314 314 318 318 314 313 313 313 314 315 315 315 317 316 316 320 321 319 320 324 327 324 321 320 322 321 318 319 320 318 317 317 316 316 315 315 317 319 316 314 315 316 315 317 318 318 317 316 317 318 317 316 316 315 316 316 315 314 313 314 313 312 311 311 311 311 311 311
311 312 313 313 314 314 314 314 313 313 312 310 310 309 310 311 312 313 316 315 314 316 315 313 314 317 317 316 317 316 315 316 315 315 316 317 317 319 322 323 321 318 320 322 322 322 322 319 317 318 319 318 318 318 315 315 318 318 316 315 315 314 315 316 316 316 315 314 314 313 313 313 314 313 312 312 312 312 310 310 310 310 309 310 310 310 310
311 311 312 313 313 313 314 314 314 314 313 312 311 310 310 310 311 314 316 315 315 319 319 316 317 321 321 318 316 315 315 315 316 316 316 315 316 319 321 320 318 319 321 321 319 320 321 318 315 317 319 318 318 319 317 315 316 317 317 316 315 314 314 314 315 314 313 313 315 315 314 314 313 311 311 311 311 309 309 309 309 309 308 309 309 309 309
311 311 311 312 313 313 313 313 313 314 314 313 312 311 311 311 312 315 316 316 316 319 321 320 320 319 317 316 315 314 315 315 315 317 316 315 315 317 320 318 315 316 318 316 315 318 320 319 317 317 319 317 316 316 316 316 316 315 315 317 317 314 312 314 315 314 312 313 314 314 312 312 311 311 311 311 310 309 308 308 308 308 307 308 308 308 309
311 311 311 311 312 313 313 313 313 313 313 313 313 312 311 312 312 313 314 316 317 315 316 320 321 317 314 315 315 314 315 316 315 316 317 316 314 315 316 315 314 315 314 314 317 320 321 321 320 319 319 317 315 315 316 316 316 314 314 317 317 313 312 314 315 314 313 312 312 311 310 311 312 312 311 310 310 309 309 308 307 307 307 307 307 308 309
311 311 311 311 311 311 312 313 313 313 313 313 313 312 312 312 313 312 312 315 318 318 318 319 319 316 314 315 315 314 314 315 315 316 316 315 314 314 313 314 317 319 316 316 319 320 320 321 320 319 319 317 314 316 317 316 315 316 317 316 313 312 314 315 313 314 314 313 313 313 312 312 313 312 310 310 310 309 309 308 307 307 307 307 307 307 308
310 311 311 311 311 311 311 311 312 312 312 312 312 312 312 312 312 312 312 313 316 318 319 318 316 316 316 316 315 314 315 315 315 316 316 314 314 314 313 313 318 320 318 318 319 318 318 320 318 317 318 317 315 316 317 315 314 316 317 315 312 313 315 314 314 315 316 315 315 314 313 313 313 311 310 310 309 309 309 309 308 307 307 307 307 307 308
310 310 311 311 311 311 311 311 310 310 310 311 311 311 312 314 313 313 312 312 313 315 317 317 317 318 319 317 315 314 315 316 316 316 316 315 314 314 312 312 315 317 318 319 319 319 320 320 318 318 319 317 316 317 317 315 316 316 315 314 313 313 314 314 314 314 314 315 316 315 313 314 313 312 311 310 308 309 309 308 308 307 307 306 306 307 307
310 310 310 311 311 312 312 311 310 309 309 309 310 313 318 320 317 315 314 312 312 314 316 318 318 318 317 317 316 316 316 316 316 317 315 314 314 314 313 313 314 315 317 318 319 320 321 321 319 319 318 315 315 317 316 316 318 318 316 315 314 313 313 313 312 313 315 317 317 314 313 314 313 310 310 309 307 308 309 309 308 308 307 307 307 307 307
310 310 310 310 311 312 312 311 309 308 308 308 311 319 328 326 319 316 314 313 312 314 316 318 318 318 318 318 316 316 316 315 316 317 316 314 315 314 313 314 315 315 316 317 318 319 320 321 320 319 317 314 315 317 316 316 318 318 318 317 315 313 312 312 311 311 314 317 316 313 312 312 310 309 311 311 308 308 309 309 308 308 308 308 307 306 307
310 310 310 310 311 311 312 310 308 308 308 307 310 316 320 319 317 315 314 314 314 315 317 319 319 319 319 318 316 315 316 316 317 318 319 318 319 319 317 316 318 317 316 318 320 321 321 321 321 319 317 316 317 317 317 316 315 315 317 319 317 312 311 311 311 311 311 313 313 312 312 312 311 310 311 311 308 307 307 308 307 306 307 307 306 306 306
310 310 309 310 311 311 311 310 308 307 307 307 308 311 311 312 315 316 315 315 316 316 317 319 320 319 319 318 318 317 317 318 321 323 322 320 319 319 319 318 318 317 317 318 320 321 321 321 321 320 318 318 318 318 317 316 315 314 317 320 318 313 311 311 311 311 311 311 312 312 313 314 313 310 309 308 307 307 307 307 306 306 306 305 306 306 306
310 310 310 311 311 311 310 309 308 308 308 307 309 313 313 313 314 315 315 315 316 317 317 318 320 321 319 319 320 319 317 319 323 325 325 321 318 318 319 318 317 318 319 319 320 320 319 319 320 320 318 317 317 318 318 317 315 315 317 318 316 312 311 311 311 312 312 311 310 311 311 311 310 309 308 309 308 307 306 305 305 305 305 305 305 305 305
310 310 311 312 311 310 310 309 308 308 308 308 312 316 317 315 314 316 316 316 317 319 320 318 320 321 321 320 321 319 317 319 322 323 323 322 319 319 320 318 316 317 318 318 319 319 319 319 319 320 319 318 317 317 318 317 317 316 316 315 313 311 312 313 314 313 312 311 310 310 309 309 309 310 310 310 309 308 307 306 305 305 305 305 305 305 305
310 311 312 311 310 310 310 309 309 310 311 313 315 317 318 317 315 315 315 315 316 318 319 319 320 320 321 321 321 318 317 321 323 322 320 320 319 320 320 318 318 318 318 317 318 319 319 318 318 318 318 319 318 318 317 318 318 317 314 313 312 311 312 315 316 315 313 311 311 311 310 310 311 310 309 309 309 307 307 307 306 305 305 305 304 305 305
311 312 312 311 310 311 312 311 311 314 316 317 316 317 317 317 317 315 313 314 315 316 317 319 320 319 319 320 320 318 318 321 323 322 320 319 320 320 319 318 318 319 319 318 319 319 318 316 317 318 318 318 319 319 319 317 317 316 314 312 310 310 311 314 315 316 315 312 311 311 310 310 310 310 309 309 309 308 308 308 306 305 305 305 305 305 306
311 311 310 310 314 320 321 318 316 318 318 316 316 317 317 317 317 317 315 314 316 317 316 317 319 318 317 318 318 317 318 321 322 321 320 320 320 321 320 319 319 319 319 319 319 317 317 316 316 317 318 318 318 319 318 316 315 315 313 311 311 311 312 314 314 314 314 313 313 313 313 312 312 311 310 310 310 309 307 306 305 304 305 305 306 306 306
311 311 310 311 317 324 323 319 318 319 318 315 316 319 319 318 319 320 318 316 318 318 317 317 318 318 318 319 319 317 318 320 320 320 319 319 319 319 320 319 318 318 319 319 317 315 317 318 317 316 317 318 318 318 317 315 314 313 312 311 311 311 313 315 314 312 313 314 315 315 314 313 313 313 312 311 310 308 305 304 304 304 305 305 306 306 307
310 311 312 314 317 320 319 318 317 317 317 317 318 319 320 320 321 321 320 319 320 320 318 318 318 317 317 319 319 318 317 319 320 320 319 319 317 316 317 318 317 317 319 319 317 315 318 319 317 316 319 321 320 318 316 316 315 313 311 312 311 310 310 311 311 309 309 310 311 309 308 308 309 311 311 311 310 309 307 305 304 304 305 305 306 307 307
311 313 315 318 318 318 318 317 316 317 319 320 321 321 322 323 322 321 321 323 324 322 319 319 320 320 319 319 320 319 318 318 319 319 319 318 317 316 318 319 317 317 319 318 316 317 318 318 316 317 320 322 320 316 315 315 314 313 312 313 311 308 306 308 309 308 308 311 311 308 306 307 307 307 307 308 307 307 306 305 305 305 305 306 306 307 307
314 315 316 316 316 316 317 318 318 320 321 322 323 322 321 322 322 322 322 324 324 321 319 320 323 324 323 321 320 320 319 318 318 318 319 318 316 316 318 318 316 316 318 317 316 317 318 318 318 319 319 317 315 314 314 314 314 314 314 314 312 308 307 309 312 310 308 309 309 308 306 307 307 307 307 307 306 305 306 305 306 306 306 306 306 307 307
315 314 314 315 316 317 319 320 320 321 322 323 324 324 322 322 324 325 323 323 324 322 321 322 322 322 321 320 320 319 318 316 317 319 319 318 316 316 318 319 318 317 317 316 316 317 318 318 319 318 316 313 312 314 314 313 313 314 314 312 309 308 307 308 310 310 308 307 307 308 307 307 307 307 307 307 306 306 306 305 305 305 306 306 306 307 307
314 312 313 317 320 321 321 321 322 323 325 325 324 324 325 327 327 325 324 324 325 325 325 324 322 322 322 322 321 320 319 317 316 317 317 317 317 317 318 319 318 317 316 315 315 316 317 317 317 316 314 313 313 313 313 312 312 313 313 311 308 307 306 307 308 309 308 307 307 308 308 307 307 307 307 307 306 306 306 305 305 305 306 306 307 307 307
317 317 319 323 324 322 321 321 321 323 326 327 325 324 326 326 323 322 323 324 324 325 326 324 321 321 323 322 320 321 322 320 319 318 318 317 318 318 318 318 318 317 316 316 316 315 316 317 317 316 315 314 314 313 313 312 312 312 312 311 311 309 310 311 312 311 308 307 307 307 307 307 306 307 307 307 307 306 306 305 305 305 305 306 307 306 306
319 322 323 327 327 323 322 322 322 322 324 326 327 327 327 324 320 320 322 324 324 324 325 324 321 322 324 323 320 320 322 321 319 319 318 318 320 319 317 317 318 317 316 317 318 317 317 317 316 315 315 314 315 314 313 313 312 311 310 311 313 313 311 310 310 308 307 307 307 307 308 307 307 307 307 307 307 306 305 305 305 305 305 306 306 305 305
321 321 321 325 327 323 321 323 327 327 327 328 329 327 324 322 320 321 322 323 323 323 323 323 322 322 323 321 319 319 321 321 319 319 319 319 320 320 318 318 319 318 317 317 317 317 316 316 315 314 313 313 314 315 313 312 312 311 310 311 314 314 311 309 308 306 306 307 307 307 307 308 308 307 307 307 306 305 305 305 305 305 305 306 306 305 303
323 322 322 326 329 326 324 326 328 327 328 329 329 327 323 321 323 325 324 323 323 323 323 324 324 324 323 322 319 318 320 320 319 319 319 319 319 318 317 317 317 316 315 315 316 315 314 313 313 313 312 312 312 313 313 312 311 310 309 310 312 313 312 311 310 307 306 306 307 307 307 307 308 307 307 307 306 305 304 305 305 305 305 305 305 304 303
319 319 321 325 327 326 326 326 325 326 328 327 326 326 325 324 326 327 325 324 325 325 322 322 324 323 321 320 319 318 318 318 318 317 318 319 319 317 315 315 316 315 314 313 313 313 312 311 311 311 312 312 312 312 313 312 311 310 310 310 309 307 306 307 307 307 306 307 307 307 307 307 307 308 307 306 305 305 305 305 305 304 305 305 304 303 302
316 318 323 324 323 324 326 324 323 327 330 326 323 325 326 325 327 327 323 322 328 330 324 320 322 322 320 319 319 319 318 319 319 319 319 318 317 315 314 315 315 315 312 311 311 311 311 311 310 310 310 311 311 312 313 313 312 312 311 311 308 305 304 305 307 307 307 307 307 307 307 307 307 308 307 306 305 305 305 304 304 304 304 304 302 301 300
317 319 323 323 322 323 326 324 324 327 327 324 323 325 325 325 330 329 322 320 329 333 325 320 323 324 321 320 319 318 317 318 320 319 317 316 315 314 314 313 313 311 311 310 309 309 310 310 310 310 310 310 311 312 312 312 312 311 310 309 307 305 306 307 307 307 307 308 307 307 307 307 307 308 307 305 305 304 305 304 304 304 303 303 302 301 301
321 322 325 325 323 323 323 323 325 328 327 325 326 326 326 327 330 327 320 319 324 325 321 321 324 322 320 320 321 319 318 318 318 316 314 313 312 312 312 311 310 310 310 310 308 308 308 308 308 309 309 310 311 311 312 312 312 311 309 308 307 306 306 307 307 307 307 307 307 307 307 307 307 307 306 305 305 305 305 304 304 303 303 303 302 301 301
Wind_Speed
25 25 26 27 29 30 31 30 29 31 31 25 17 8 4 3 0 10 25 18 11 10 6 3 4 4 2 2 4 5 4 3 5 5 6 5 4 5 5 4 4 5 4 3 3 4 4 4 4 3 2 3 3 7 8 8 5 3 3 3 3 2 2 3 2 3 4 4 4 6 8 7 6 5 6 6 4 4 1 3 2 1 4 5 2 2 2
24 25 25 26 28 30 30 29 27 27 28 23 14 5 3 0 3 6 21 23 16 8 3 2 4 3 3 5 6 5 4 4 6 6 6 4 2 3 4 4 3 3 4 4 4 3 3 3 3 2 2 2 5 7 9 8 5 3 3 3 2 2 1 3 3 4 5 5 5 6 6 6 3 3 5 6 6 7 4 1 1 1 3 5 1 1 3
24 24 24 25 26 29 30 28 24 23 24 20 11 3 2 2 0 4 12 22 16 5 2 4 4 3 4 6 5 4 3 4 5 6 5 4 3 3 2 3 3 3 4 5 7 6 4 2 2 2 2 2 4 6 8 7 4 5 7 6 2 1 2 3 3 2 1 1 2 3 4 4 3 4 6 6 7 8 4 3 3 2 4 6 0 1 7
24 23 23 24 25 28 29 27 22 20 21 16 9 5 2 2 3 2 7 11 8 3 1 4 4 3 3 4 5 5 3 3 4 6 5 3 4 4 2 2 3 5 5 5 6 7 6 3 2 2 2 2 3 4 6 6 6 8 11 10 4 2 2 2 5 4 3 4 3 3 3 3 4 7 8 7 6 5 3 3 2 1 4 5 2 1 7
23 23 22 22 24 27 28 28 22 18 19 13 6 5 4 2 2 2 2 3 4 4 5 4 4 2 3 3 3 5 5 3 4 5 3 2 3 4 4 5 4 5 5 4 4 5 5 5 3 2 2 2 3 5 4 5 9 10 9 7 4 4 3 3 4 4 3 5 4 4 3 2 4 7 9 8 7 5 3 1 2 1 4 5 4 2 7
22 22 21 21 23 26 28 28 23 17 17 13 5 4 4 2 1 1 0 1 2 3 3 4 6 6 4 3 2 4 6 5 3 3 3 3 4 3 3 5 5 5 4 4 3 3 4 4 2 1 2 2 3 6 4 4 7 8 6 4 3 4 1 1 3 2 1 3 3 3 1 2 3 4 7 9 8 5 3 4 4 3 2 6 8 7 6
21 21 20 20 22 25 27 29 25 16 12 12 12 6 3 2 1 2 1 2 2 1 3 4 7 7 5 3 3 3 5 4 2 2 2 4 4 3 3 2 3 5 5 4 3 2 3 2 2 0 1 2 1 3 3 3 5 6 4 4 3 3 0 0 3 3 3 4 4 2 3 3 4 4 6 8 8 7 6 6 5 4 6 9 9 8 6
20 20 19 19 20 23 25 28 27 18 12 16 16 8 3 2 1 2 2 3 2 3 4 4 6 6 4 3 3 2 3 3 3 2 3 2 3 3 4 3 3 5 5 5 3 2 5 3 1 1 2 2 1 1 1 2 4 6 3 3 3 2 1 1 4 3 4 5 4 4 3 3 4 5 6 7 8 7 5 5 5 5 6 8 7 5 4
19 19 18 18 19 21 23 26 29 22 15 16 12 6 6 3 2 0 3 3 4 4 3 3 4 4 4 3 3 3 3 3 2 1 1 3 2 1 5 4 3 4 5 5 2 3 4 3 2 2 2 1 2 1 1 2 2 4 2 2 2 2 1 2 4 3 4 4 5 6 5 4 4 4 5 5 5 5 3 3 2 1 4 6 4 2 3
17 18 17 16 16 19 21 24 28 25 20 16 8 4 9 6 2 2 4 3 4 3 2 3 4 2 2 3 3 3 4 5 3 2 2 0 2 3 6 6 3 4 5 4 3 5 4 3 2 3 3 2 3 3 2 2 1 1 1 1 1 2 2 1 3 2 3 4 5 6 5 5 4 3 2 2 4 5 4 2 3 3 2 2 1 1 3
16 16 16 15 14 16 18 20 24 25 24 20 11 6 10 7 1 2 4 4 3 3 2 4 3 2 2 3 4 5 6 8 6 2 1 4 4 2 5 7 4 3 1 3 4 4 4 3 1 1 2 2 1 2 3 4 4 1 1 1 1 2 3 1 2 2 3 5 5 6 4 3 4 3 2 3 4 3 2 1 3 5 5 3 3 2 4
15 15 15 14 13 14 15 16 19 21 21 20 15 13 13 8 2 2 4 4 2 3 3 2 1 1 2 4 4 4 6 6 5 2 2 4 6 6 5 6 4 1 3 4 3 3 2 2 4 3 4 5 4 5 7 6 5 4 3 2 1 2 3 1 2 3 2 3 5 4 3 4 4 5 4 3 2 2 1 1 2 5 7 6 5 4 5
13 14 14 14 12 12 13 13 15 17 17 17 17 18 17 12 6 3 4 5 1 2 2 1 3 1 3 4 4 3 3 4 5 4 4 4 5 6 4 3 2 2 3 0 5 6 3 3 4 3 5 6 5 5 6 5 5 5 5 3 2 2 3 1 1 2 0 1 2 1 4 4 6 7 5 1 3 4 1 0 2 5 6 6 5 4 4
11 13 13 12 11 11 11 11 12 14 14 15 16 18 19 16 9 2 2 4 1 2 2 1 4 3 3 3 3 2 3 4 5 4 2 2 3 2 2 1 2 5 1 3 5 5 3 2 3 3 4 5 4 4 4 3 3 4 5 4 1 3 3 1 1 1 2 1 2 2 4 5 5 4 3 3 3 2 1 0 1 3 5 4 4 3 3
9 11 11 11 11 10 9 9 10 11 12 12 14 16 18 17 11 3 2 4 3 1 1 1 2 1 2 2 3 3 3 3 3 3 3 2 1 0 2 1 3 5 2 4 3 3 3 2 3 2 3 2 1 3 3 3 3 2 2 4 2 2 3 3 2 2 2 2 2 3 3 3 3 3 2 3 3 3 1 1 2 1 4 4 4 4 3
7 9 10 9 9 10 9 8 8 9 10 10 11 14 17 16 13 7 3 4 4 1 2 3 4 2 2 1 2 3 1 0 1 2 4 4 2 2 3 2 4 4 3 4 3 3 4 2 2 2 1 2 2 2 2 2 4 4 3 5 5 4 1 3 3 1 2 3 3 3 3 4 4 5 6 6 5 4 2 1 2 1 5 5 5 6 5
5 6 8 8 8 8 8 7 7 7 9 9 9 11 14 15 13 8 4 3 3 1 4 2 1 3 3 1 2 0 2 1 2 2 1 3 3 3 4 3 5 5 4 4 3 3 4 2 2 2 2 2 2 1 1 1 2 4 5 5 5 4 3 3 2 3 3 3 4 3 2 3 3 4 7 8 5 2 2 2 2 3 6 7 6 6 6
4 4 5 6 7 7 7 6 6 6 7 8 7 7 11 14 13 9 4 3 3 1 4 1 2 2 3 3 3 2 1 1 2 1 0 2 2 2 2 2 3 3 3 4 3 3 3 2 2 3 2 3 1 2 1 0 1 3 2 2 3 3 2 1 2 3 4 5 4 3 2 2 2 4 7 7 4 1 3 4 1 3 7 7 5 6 6
3 3 3 4 5 6 6 5 5 5 5 7 6 5 7 10 12 11 6 3 2 1 4 2 1 3 2 2 1 1 1 1 2 3 1 2 3 2 1 2 1 2 3 4 2 2 3 1 1 3 2 3 1 2 2 2 2 2 1 1 1 0 1 0 2 2 2 3 3 4 3 1 1 4 6 4 1 2 3 3 2 3 5 6 6 6 6
3 3 2 2 3 4 4 5 5 4 4 5 5 4 5 6 9 10 7 3 2 2 6 4 4 5 3 2 2 2 1 1 1 3 3 3 2 2 3 2 2 1 2 2 2 1 2 1 2 1 2 2 2 2 1 2 3 3 3 2 2 3 1 1 2 2 1 1 3 4 3 1 1 4 4 1 1 2 3 4 3 2 3 5 5 6 6
4 4 3 2 3 3 3 4 4 4 3 3 3 2 2 3 4 6 5 2 3 0 3 3 4 6 6 7 9 8 6 4 4 4 3 3 2 3 2 3 2 1 1 2 2 1 2 2 2 1 1 2 1 1 1 1 4 3 3 3 1 3 3 1 2 2 2 2 4 3 3 2 1 1 0 2 3 3 3 3 3 2 2 3 4 5 6
4 4 4 4 4 4 4 4 5 5 4 3 4 4 3 2 2 3 5 3 3 4 7 9 12 15 17 17 17 15 12 12 12 9 4 2 1 2 4 3 3 3 2 3 3 1 1 2 2 2 2 1 1 2 2 2 2 4 1 3 2 4 4 3 2 3 3 4 5 4 2 2 2 3 3 4 5 3 2 3 3 2 2 2 4 5 7
5 5 5 5 5 5 5 5 6 6 6 5 6 5 5 5 5 5 6 4 3 7 12 13 13 15 15 12 10 9 10 13 18 19 13 6 2 1 3 3 2 2 1 3 4 3 2 3 2 2 2 2 2 1 1 1 2 3 2 1 3 4 3 3 2 2 3 4 6 6 5 4 3 3 4 4 4 3 2 3 4 3 3 3 4 6 7
6 5 5 5 5 6 6 7 8 8 8 7 7 7 7 7 5 5 5 2 2 3 5 5 4 5 5 4 5 9 12 12 13 18 19 14 6 0 2 4 4 2 2 4 4 4 3 2 2 2 2 3 3 3 2 3 3 3 2 2 4 2 3 3 2 1 2 3 4 4 4 4 4 5 5 4 4 3 3 3 4 5 5 5 6 7 8
6 5 5 5 5 6 7 8 9 10 10 10 9 9 8 6 3 2 3 2 1 1 1 3 4 4 3 8 14 17 14 9 8 12 17 21 17 8 4 7 8 6 4 5 4 4 3 2 2 2 2 3 3 3 3 3 3 3 4 3 3 1 3 3 3 4 3 5 6 5 5 6 6 5 4 3 3 5 5 4 5 6 7 7 7 8 7
7 6 6 6 6 6 6 8 9 11 11 11 11 11 10 8 6 3 1 0 0 0 1 3 5 4 8 15 20 17 10 7 8 10 14 23 25 18 9 7 6 5 4 4 4 3 3 2 2 3 3 2 3 3 3 3 2 2 3 5 3 4 4 3 3 3 3 7 7 5 5 7 6 4 5 3 3 5 7 7 7 8 8 9 9 9 9
8 7 6 6 7 6 6 7 8 10 11 12 12 12 13 12 9 7 6 3 2 1 2 3 4 8 12 15 17 16 13 11 11 9 12 20 23 19 13 9 5 4 5 4 1 2 3 2 2 3 3 2 3 3 2 2 2 2 4 4 3 4 4 3 2 1 4 7 5 3 2 5 5 4 5 4 3 4 7 8 9 9 10 10 10 11 11
9 7 6 7 7 7 7 7 7 8 10 11 12 13 15 15 12 10 10 8 4 1 2 3 5 10 12 13 15 18 17 13 10 9 13 20 22 18 15 11 6 4 5 3 1 2 3 2 3 3 2 2 2 2 1 1 1 3 5 5 5 6 6 6 5 5 6 8 7 5 4 4 6 5 5 5 4 4 6 8 8 9 10 10 11 12 12
9 8 7 7 7 7 7 7 7 8 8 8 9 9 9 9 9 9 12 12 8 3 1 3 5 6 7 11 18 21 18 11 6 8 13 17 18 17 15 11 6 5 5 4 3 3 3 3 3 2 3 4 4 2 1 2 2 6 7 7 8 8 8 10 10 8 6 6 6 6 5 5 6 5 5 5 4 4 6 7 8 9 11 11 10 11 13
9 8 8 7 7 7 7 6 6 7 6 5 6 5 3 3 2 5 11 14 12 5 1 3 3 3 4 8 13 16 16 13 7 7 13 16 14 14 15 12 6 4 4 2 2 3 3 3 3 3 3 6 5 2 2 3 3 6 5 8 9 9 8 9 10 8 6 5 5 6 6 7 6 4 4 5 7 7 6 7 8 10 13 14 12 12 14
9 9 8 7 7 7 7 6 5 6 5 2 1 2 1 1 1 5 9 12 12 6 1 2 3 4 4 4 5 10 17 18 12 4 7 8 5 5 7 7 3 3 3 2 2 2 3 3 3 2 3 6 5 2 3 3 4 6 5 7 9 9 9 8 8 7 6 4 4 2 3 5 3 3 4 5 7 8 6 7 11 15 17 18 17 16 17
8 8 8 7 7 7 6 6 5 5 5 6 6 5 5 4 6 9 10 10 10 6 2 2 2 2 2 3 6 10 14 14 9 3 2 2 3 5 4 3 2 1 2 2 2 2 2 3 3 2 3 4 4 2 2 4 7 7 4 6 7 7 8 8 7 7 5 4 5 2 4 5 5 5 6 6 7 7 7 9 14 17 18 19 19 19 19
8 8 7 7 6 6 6 6 5 6 7 10 12 12 9 8 12 13 11 9 7 5 2 1 2 3 2 3 6 8 7 5 3 3 3 1 1 3 3 2 1 1 2 3 3 2 1 2 2 2 2 3 3 2 2 7 12 9 4 6 7 7 7 7 6 5 5 5 6 5 6 7 6 6 7 7 8 9 9 11 15 16 15 15 15 15 16
7 7 6 5 5 5 5 5 5 5 5 9 10 7 4 6 15 17 15 10 4 2 2 1 1 3 3 2 3 5 5 4 2 2 2 1 2 3 2 2 2 2 4 4 2 1 1 2 2 2 2 2 2 2 5 10 11 7 3 5 6 5 5 4 4 5 5 5 6 7 8 7 5 5 5 6 8 9 10 11 12 12 12 12 12 12 14
5 5 5 4 4 4 3 3 3 3 4 6 6 4 4 3 13 20 20 13 4 0 2 1 1 3 2 3 4 4 5 4 1 1 1 2 1 2 2 2 2 2 3 2 1 2 3 2 2 2 2 2 3 4 7 9 7 3 1 3 3 4 5 4 4 5 5 5 6 7 7 6 5 5 6 7 7 7 7 8 9 10 11 11 12 12 12
4 3 3 2 2 2 2 1 3 4 3 3 2 3 4 3 9 17 20 14 4 1 1 0 1 2 1 2 3 3 5 3 2 1 1 1 1 1 2 2 1 2 1 1 2 3 2 2 2 2 2 3 5 7 7 7 6 5 4 4 6 6 6 6 6 6 6 5 5 6 6 5 6 6 6 6 6 5 6 7 9 10 11 12 13 12 11
2 1 1 1 1 1 1 2 3 3 2 2 3 2 1 3 5 8 11 9 5 4 1 1 2 3 2 2 3 2 3 2 1 1 1 1 1 0 1 1 1 2 1 1 2 2 1 1 1 2 3 5 6 7 5 5 6 5 5 5 7 6 6 6 6 6 5 4 5 5 5 5 6 6 5 6 7 6 5 7 8 9 11 13 13 12 13
1 2 2 1 1 1 0 2 3 2 1 5 6 3 1 1 3 3 3 3 3 3 2 2 3 2 2 2 3 2 2 2 1 2 1 1 1 1 0 0 1 2 1 2 2 1 1 1 1 2 4 5 6 6 5 5 4 3 4 6 7 6 6 6 6 7 6 4 4 5 5 5 6 6 5 6 6 5 5 6 8 10 11 12 13 15 17
3 3 2 1 0 0 1 2 4 2 2 4 4 2 0 1 1 0 1 2 2 2 2 2 3 2 3 4 5 4 3 2 1 1 1 1 1 1 0 1 1 1 1 1 1 0 0 1 2 2 3 4 4 5 4 5 4 4 6 7 7 7 6 5 6 8 8 6 6 6 6 5 6 5 5 5 5 5 6 7 9 11 12 14 16 18 17
4 3 2 1 1 2 2 2 2 1 1 1 1 1 0 1 1 1 1 1 1 2 2 3 3 3 4 5 4 4 4 4 2 2 2 1 1 1 1 1 1 1 1 2 1 0 1 1 1 2 3 4 4 3 3 4 4 5 5 6 7 7 7 7 7 9 8 6 6 8 7 7 6 5 4 4 4 5 6 7 10 13 14 16 19 20 19
4 3 2 1 3 4 5 4 3 2 1 1 1 0 0 1 1 1 1 1 2 2 2 2 2 2 3 4 4 4 3 2 1 1 2 1 0 0 1 1 0 0 2 2 0 1 1 1 1 2 3 4 4 3 3 3 3 4 4 5 6 7 8 7 8 10 8 5 5 7 8 7 7 7 6 6 5 5 7 8 11 14 16 18 20 22 23
5 3 2 5 7 7 5 3 1 1 1 1 1 1 0 1 1 1 0 1 2 1 1 2 3 3 3 4 4 3 2 1 1 0 0 1 0 0 1 1 0 0 2 2 0 0 1 1 2 3 4 6 6 4 4 4 4 5 5 5 6 8 8 6 6 9 10 9 7 7 8 7 8 9 9 8 7 7 9 10 12 15 17 20 22 22 22
4 3 3 4 4 2 0 1 0 0 1 1 1 1 1 2 1 1 1 2 1 1 2 3 2 2 2 2 2 1 1 2 1 0 0 1 1 0 0 1 1 1 2 1 1 1 2 1 2 4 5 7 6 5 6 5 5 5 5 6 7 10 11 9 8 9 10 10 10 9 8 8 9 10 10 9 7 8 10 13 14 16 19 21 21 20 21
2 1 2 2 1 0 1 1 1 1 1 0 1 1 1 2 2 1 2 2 1 2 3 2 0 1 2 2 1 1 0 1 1 0 1 1 1 0 1 1 2 2 1 1 1 1 2 2 3 4 5 6 5 3 3 3 2 2 3 5 7 9 11 10 9 7 7 7 8 8 8 8 9 10 10 9 7 7 10 13 15 18 20 20 17 18 21
2 1 2 2 2 1 1 1 1 1 1 2 2 2 2 2 3 3 3 3 2 2 3 2 1 1 3 3 1 1 1 0 1 0 1 0 0 1 2 2 2 1 0 1 1 1 2 2 3 4 5 6 5 4 2 1 1 2 3 4 5 6 7 7 6 6 5 6 7 7 7 7 8 8 9 9 7 7 10 13 15 18 19 17 14 16 20
1 1 3 2 2 2 1 0 1 1 2 2 2 3 3 4 4 4 4 3 3 4 5 4 3 3 3 2 1 0 0 1 1 1 0 2 0 2 2 0 1 1 1 1 2 1 2 4 4 4 5 5 5 4 2 2 2 4 4 4 5 5 6 6 6 6 6 7 7 6 6 7 7 7 8 7 5 6 9 12 15 18 18 15 13 15 19
0 0 3 2 1 2 0 1 3 3 3 3 3 4 4 4 3 4 3 3 4 4 4 4 2 2 2 1 1 1 0 1 0 1 1 2 1 2 1 2 1 0 0 1 3 3 3 4 5 6 6 6 5 5 2 3 4 6 7 6 5 5 5 5 5 6 7 8 7 6 5 5 5 6 6 4 1 4 9 12 14 16 17 15 13 15 18
1 0 1 1 2 2 2 2 2 1 1 2 3 3 2 1 2 4 4 3 3 3 3 2 1 1 2 1 1 1 1 1 1 1 1 1 0 1 2 2 1 1 1 2 3 3 3 4 5 7 7 6 6 6 5 5 7 9 9 8 6 6 6 5 5 7 9 10 9 7 6 5 4 5 6 5 1 3 7 11 13 15 16 14 13 14 16
2 1 1 1 2 2 3 3 1 1 3 3 2 2 2 2 4 5 4 2 2 3 3 2 1 0 1 1 0 0 1 1 0 1 1 1 1 1 1 1 2 2 1 1 2 4 5 5 6 7 7 7 7 7 6 6 7 7 5 5 5 5 8 8 8 10 11 11 10 8 6 5 4 6 7 6 3 2 6 10 13 14 15 14 14 15 15
1 1 1 1 1 2 2 1 1 3 4 3 2 2 2 3 4 4 3 2 1 1 2 2 1 1 1 1 2 2 2 1 0 1 1 1 0 1 1 2 2 2 2 3 4 5 6 6 6 7 8 7 7 8 7 7 6 4 3 3 6 7 9 12 12 12 12 11 10 8 6 6 6 7 9 8 5 4 6 10 12 13 14 14 15 15 14
0 0 1 3 3 3 2 1 2 4 4 4 3 3 3 2 3 4 2 1 2 4 3 1 0 2 3 2 1 1 2 1 1 2 1 1 0 1 1 3 3 4 4 5 5 5 6 6 6 7 8 8 8 8 7 5 3 2 4 4 5 6 8 12 14 13 11 10 10 8 7 6 5 6 9 9 7 5 6 9 11 12 12 13 13 13 13
1 1 2 3 4 4 3 2 3 4 4 4 3 3 3 3 4 4 1 2 3 2 1 1 2 3 2 1 1 0 1 1 2 2 1 1 1 2 3 4 5 5 5 6 5 5 5 6 6 6 7 8 8 8 6 4 4 4 6 6 5 6 9 12 13 12 11 10 9 8 7 6 5 8 11 11 8 5 5 7 9 10 12 12 11 11 11
Wind_Direction
5 10 10 8 7 7 6 5 0 359 4 8 9 21 51 52 57 353 8 32 88 78 48 357 30 52 30 45 44 33 43 31 16 16 25 38 32 25 32 33 41 42 29 35 51 62 57 22 40 97 43 17 330 315 336 350 352 51 38 317 316 14 55 48 357 301 322 307 314 25 45 58 52 32 19 12 12 19 350 233 243 322 353 342 3 106 250
7 11 11 9 9 9 8 7 3 1 5 7 9 38 97 91 230 337 15 40 72 82 76 70 61 48 32 60 55 34 39 40 36 39 32 27 41 48 27 12 41 51 30 49 57 59 78 41 17 64 75 325 304 323 346 357 3 36 26 343 337 5 39 54 30 357 358 354 340 350 15 38 39 340 355 360 350 352 345 310 91 102 6 349 341 174 289
7 12 12 10 10 10 9 7 6 3 2 6 18 82 142 33 244 274 5 33 54 84 145 122 100 64 51 58 47 32 39 34 39 51 44 33 57 77 42 8 46 45 34 54 45 40 80 89 354 37 46 302 298 338 349 353 14 32 19 14 30 64 63 86 85 69 19 313 320 311 323 352 354 326 344 350 347 356 9 21 32 45 340 335 66 174 299
8 13 12 10 10 11 9 7 7 4 359 5 35 75 113 56 36 306 340 16 38 46 50 94 96 73 72 60 25 28 46 9 20 51 53 26 44 64 34 359 48 37 35 60 47 34 51 69 72 71 17 313 297 334 348 355 16 30 23 19 45 93 38 73 124 131 172 201 216 254 286 321 324 324 335 337 333 348 47 59 31 44 340 317 197 118 320
8 13 12 11 11 12 10 7 8 8 3 8 50 56 47 86 56 355 331 349 15 24 18 41 63 61 98 86 21 23 46 17 5 35 46 18 48 59 19 15 52 48 40 62 47 23 34 45 61 71 7 320 302 330 360 6 9 23 22 10 48 88 27 28 91 116 183 204 234 272 285 301 310 321 327 320 313 325 14 31 220 136 23 299 257 1 340
8 13 13 12 12 13 12 10 11 15 11 15 62 64 28 77 105 276 154 17 16 31 14 35 55 45 51 73 46 39 50 44 23 16 8 15 47 77 30 24 67 81 78 95 65 22 36 32 25 14 3 355 335 344 352 348 5 23 13 352 64 101 85 16 66 54 256 239 263 289 328 321 310 317 315 311 309 300 278 250 222 155 127 252 273 313 315
7 13 14 13 14 14 14 14 18 25 29 43 68 68 10 66 70 307 358 82 86 36 1 38 57 42 32 48 45 50 60 51 19 352 17 15 18 76 91 37 65 78 81 101 88 58 75 33 321 249 27 17 34 10 336 320 3 29 14 352 59 101 149 149 87 32 325 294 296 348 27 340 314 309 298 298 299 282 259 248 230 205 218 242 266 286 283
6 13 17 15 16 17 16 18 22 28 52 67 68 57 9 50 56 319 18 57 37 11 5 39 60 36 25 48 36 45 67 43 354 9 84 77 353 39 104 110 74 74 76 84 88 149 151 143 259 188 52 1 325 43 280 278 348 14 18 358 35 74 341 14 87 46 323 305 326 354 351 309 294 292 282 283 294 293 275 258 246 226 239 255 265 273 280
6 13 20 17 19 21 19 21 24 27 48 69 71 42 13 3 266 301 88 53 1 4 10 41 67 37 11 31 20 14 24 4 342 1 74 147 155 123 141 134 70 53 54 53 35 236 176 147 235 206 161 213 213 210 220 208 340 358 7 344 11 76 354 1 66 53 302 303 339 336 327 320 292 272 268 268 290 308 297 282 285 220 238 259 272 300 306
7 13 21 20 21 25 23 24 26 29 44 65 81 23 10 8 312 17 94 80 358 7 30 35 68 61 339 352 20 23 2 356 36 58 333 311 146 167 156 134 80 50 41 18 278 240 208 184 219 207 187 212 216 217 206 153 99 308 197 333 328 124 103 19 74 72 283 292 327 331 343 345 299 263 281 280 289 305 296 307 10 11 305 261 260 6 320
8 12 23 24 22 28 29 28 29 32 41 54 71 44 14 16 345 7 66 79 355 350 55 39 58 80 354 11 42 43 31 20 30 75 355 348 2 35 114 107 89 80 60 277 249 216 183 167 134 124 104 36 353 155 109 75 54 36 132 43 308 118 109 154 128 105 269 286 336 349 346 317 253 243 317 299 295 319 315 344 16 8 9 56 103 66 354
9 12 23 26 25 29 33 33 32 35 40 47 59 54 28 23 70 51 78 103 338 343 62 38 290 142 43 48 61 51 48 34 9 32 70 20 17 28 55 80 88 144 252 278 333 45 73 36 15 20 26 19 41 78 70 57 40 28 59 81 43 99 107 178 133 119 240 305 20 9 288 243 261 295 301 288 339 31 79 143 43 25 23 33 53 45 13
8 10 21 27 26 28 33 37 35 35 40 44 51 53 37 32 58 81 90 105 17 338 96 16 308 29 59 59 75 75 70 45 355 12 64 55 40 28 14 58 100 257 252 43 43 52 57 9 5 2 349 359 23 42 37 37 32 21 28 51 98 139 143 163 149 130 141 22 70 202 244 265 299 312 310 333 24 22 18 227 18 30 33 26 20 25 9
7 9 18 25 26 28 31 38 38 35 38 42 49 54 45 38 50 82 103 98 102 261 127 53 332 354 38 52 70 59 32 23 360 360 29 60 73 45 343 15 302 295 306 87 50 49 73 30 18 8 344 2 19 353 345 8 24 25 18 10 52 150 143 132 200 184 139 152 216 252 319 324 316 326 359 25 9 352 6 227 300 13 41 28 0 357 353
6 9 16 20 26 29 28 34 40 37 38 42 48 54 50 41 42 57 115 109 115 333 48 139 236 353 35 42 77 68 12 2 5 350 331 341 76 348 294 341 340 325 38 90 57 52 79 68 55 29 343 16 31 312 314 340 334 353 30 5 19 120 155 161 178 188 136 153 255 297 329 302 266 268 309 330 295 264 229 178 244 345 32 16 349 343 338
4 10 15 18 23 28 27 27 33 37 40 42 45 51 50 43 40 46 65 97 107 73 296 234 205 141 89 17 57 93 113 319 54 14 341 334 337 312 291 329 22 26 64 76 60 72 73 70 116 136 231 193 183 277 314 348 317 320 4 20 31 38 66 132 144 168 138 154 220 241 228 232 244 269 290 300 280 244 197 174 241 335 16 0 346 343 332
1 7 12 15 18 25 27 23 26 35 33 29 35 46 48 43 38 40 54 82 93 196 257 264 101 96 99 10 325 95 162 150 103 99 327 296 295 308 307 333 22 43 68 71 47 61 77 87 115 131 243 223 155 200 291 27 324 308 334 11 28 25 24 75 136 194 193 193 221 230 225 231 234 266 290 297 295 268 235 254 266 351 351 340 339 341 331
351 357 6 10 10 18 26 20 20 29 22 18 29 47 49 44 37 39 67 91 71 264 257 263 90 120 155 176 212 227 190 126 96 113 258 289 275 278 314 353 11 14 50 84 81 71 97 150 158 139 224 265 101 139 235 133 182 257 292 22 22 8 7 77 148 205 223 223 236 257 267 243 224 255 277 293 316 321 235 234 262 342 323 321 333 341 341
330 327 351 360 357 7 20 13 8 16 14 14 25 44 49 46 41 44 64 97 96 235 264 275 173 199 194 158 196 272 293 126 125 121 59 307 262 237 43 41 20 344 33 77 102 109 112 188 222 136 161 281 310 148 191 198 207 215 137 73 24 27 347 235 158 179 233 225 242 275 269 228 269 285 282 286 279 218 234 255 305 301 299 318 335 335 341
323 297 295 326 337 348 3 357 354 0 6 10 23 46 59 55 47 47 55 92 118 265 276 262 208 209 203 153 173 188 43 33 108 134 150 228 240 72 43 350 314 8 39 76 107 127 131 197 248 150 160 234 217 141 194 266 258 208 152 161 209 168 147 263 206 179 182 209 237 259 246 192 14 338 328 333 182 226 273 305 312 300 319 332 331 327 333
323 296 269 271 291 307 329 332 332 337 342 352 3 25 63 63 49 36 27 77 119 132 279 230 209 237 247 241 233 218 199 197 198 172 169 222 230 101 116 225 214 126 154 160 146 175 176 174 204 193 179 201 174 139 170 286 305 278 166 152 217 187 163 198 231 204 157 192 225 226 186 182 191 79 164 244 252 265 290 300 304 329 342 328 317 315 317
318 300 277 261 254 266 288 293 301 311 309 312 318 308 296 310 333 340 330 306 205 235 260 264 271 274 271 268 264 252 240 240 241 228 187 169 245 155 146 172 185 187 183 130 124 200 208 154 173 188 179 181 191 202 176 153 296 287 192 131 214 218 187 169 203 218 201 208 228 232 204 206 208 183 202 247 266 273 286 293 292 292 292 299 304 301 299
312 299 285 268 251 252 263 268 278 288 288 294 305 299 298 306 306 310 317 305 263 262 266 270 281 282 275 269 265 264 271 271 260 245 223 199 217 230 164 156 181 208 181 139 149 167 170 172 170 158 183 196 162 161 215 205 223 238 205 194 239 224 174 140 162 254 273 261 252 254 257 258 243 228 237 248 250 257 293 302 287 275 276 281 282 281 286
308 297 286 274 260 252 254 260 268 273 275 280 285 288 299 306 306 319 333 358 26 325 289 283 291 276 268 284 309 305 296 278 261 254 239 219 200 235 250 208 186 169 206 199 167 123 127 175 141 114 205 214 156 149 209 237 230 203 178 256 286 250 159 152 175 217 292 284 256 234 231 239 253 262 262 252 247 265 286 284 280 283 283 277 273 274 277
307 299 287 276 267 261 259 263 266 267 271 273 271 276 287 287 276 341 11 26 40 14 341 313 287 265 294 312 306 302 294 267 258 267 246 222 209 208 217 197 182 177 187 183 143 106 115 153 122 134 210 218 186 181 204 222 224 193 185 222 267 208 157 179 203 193 209 255 262 255 249 253 254 248 236 237 272 295 297 289 288 292 290 282 277 275 273
307 298 287 277 272 268 266 268 270 269 269 270 269 271 273 264 246 237 238 141 154 202 266 280 274 292 330 318 305 304 308 284 273 273 242 222 219 219 204 170 163 159 138 125 121 132 143 135 132 168 201 211 196 189 195 203 189 172 210 227 205 147 152 177 200 210 258 277 276 274 282 282 265 225 216 237 283 302 304 307 307 303 301 299 292 284 280
305 298 288 279 275 274 274 277 278 276 274 271 269 268 267 262 252 238 224 198 134 21 296 260 271 300 311 305 300 307 315 303 290 277 241 222 217 212 190 159 139 116 111 104 75 107 122 130 172 184 194 204 190 185 199 197 152 160 237 237 183 162 181 179 141 210 263 264 248 205 236 279 267 234 240 267 285 293 299 305 308 306 304 305 302 297 289
304 300 290 280 277 277 280 284 285 285 284 281 278 275 271 267 260 243 230 218 196 192 243 245 286 304 303 298 303 315 319 310 290 265 236 218 209 200 184 167 154 139 136 139 143 140 154 185 187 174 179 184 179 197 210 124 128 231 237 212 180 187 191 179 178 209 232 234 221 188 189 246 255 242 245 258 258 262 280 288 291 294 297 299 301 300 296
302 298 290 283 279 277 282 289 293 296 299 302 306 300 287 278 265 239 225 220 214 208 272 280 285 297 303 304 308 315 322 322 292 246 227 212 202 195 186 175 168 167 156 139 144 169 188 196 182 184 194 172 161 188 187 145 207 245 227 192 190 200 193 185 193 211 232 237 216 187 190 229 243 233 230 244 246 245 260 272 275 280 288 292 293 293 291
299 296 292 286 279 277 283 289 296 305 311 323 339 343 341 338 300 211 203 206 208 207 290 302 283 293 300 295 298 307 317 325 312 237 215 207 202 201 199 195 185 172 162 148 159 174 190 204 202 217 204 171 155 175 189 170 225 255 225 191 197 209 207 201 200 202 215 225 198 183 206 233 242 241 246 257 259 254 257 267 274 280 288 293 294 293 291
294 292 293 289 280 279 286 288 295 306 301 282 70 67 57 17 130 159 173 191 200 205 249 270 262 298 304 268 265 294 305 308 309 276 206 195 187 190 197 196 189 184 192 201 197 193 204 205 196 200 193 181 180 196 174 171 244 262 222 192 202 209 209 212 210 204 209 199 143 140 250 253 252 283 282 257 249 252 256 271 281 287 293 297 296 294 291
293 292 293 289 281 280 285 290 295 294 271 243 232 238 246 225 173 152 152 171 188 198 256 284 273 306 311 272 278 295 300 298 303 338 64 97 64 59 65 64 49 278 256 250 229 225 218 197 188 186 177 180 198 217 171 202 243 252 208 183 206 213 204 205 207 207 207 174 130 123 288 271 241 239 246 245 253 262 269 283 290 293 296 297 293 290 287
291 292 292 287 283 283 288 292 291 285 276 271 272 276 271 232 193 167 154 161 182 202 233 272 291 288 281 285 299 314 329 327 326 25 40 20 87 82 67 51 59 274 257 234 218 227 213 175 181 188 163 161 185 213 222 234 244 245 209 190 209 210 199 197 195 195 201 184 168 191 235 243 236 235 240 251 266 272 275 288 296 298 298 296 293 291 290
291 294 293 285 283 285 288 294 297 296 289 279 283 310 329 216 194 178 168 169 180 231 237 206 283 282 291 333 321 333 5 9 341 359 1 289 145 121 136 174 161 191 217 207 193 222 229 189 171 179 174 162 170 209 239 244 246 246 231 222 215 187 172 182 191 201 209 200 197 214 229 238 258 277 271 265 270 274 281 291 298 300 299 296 293 292 291
295 296 287 283 289 292 293 301 297 291 284 273 277 341 29 188 192 185 180 177 161 330 226 193 238 271 307 327 295 313 359 1 276 229 274 258 202 124 143 162 177 208 210 189 174 206 208 182 163 177 179 155 177 223 241 243 237 218 233 251 221 158 149 177 204 217 217 201 203 225 239 247 260 267 266 267 271 276 284 294 298 298 297 294 294 294 293
293 287 283 300 332 336 322 272 233 232 249 273 306 16 40 114 174 186 190 191 196 270 236 192 234 228 246 286 271 319 3 343 268 246 297 273 305 44 116 140 212 230 195 157 209 220 203 165 159 183 186 185 212 231 237 231 214 190 185 221 219 189 177 185 191 197 204 206 214 229 235 237 243 247 255 265 268 271 285 297 301 301 299 296 296 296 294
274 234 252 10 22 14 321 229 227 237 234 146 127 115 57 91 122 164 188 200 232 258 252 302 265 227 191 250 266 332 359 315 283 347 327 260 256 309 106 124 226 240 213 202 220 216 196 182 190 210 216 221 235 240 227 209 205 190 179 206 219 203 188 185 174 169 182 209 236 247 245 245 250 252 257 266 268 270 282 292 295 297 298 299 300 299 295
187 169 146 96 75 73 233 265 286 300 189 155 152 166 233 119 101 115 155 182 228 235 190 218 255 229 163 224 251 263 276 282 347 22 313 274 320 313 321 133 230 244 264 259 230 163 118 195 227 247 248 246 249 239 207 180 180 189 197 208 206 189 179 176 159 151 161 194 235 241 240 249 259 260 254 256 263 268 268 275 285 291 294 297 298 297 295
151 154 150 131 166 176 66 14 2 6 163 170 171 184 289 95 115 164 164 169 213 221 187 216 245 213 188 227 256 247 221 230 343 351 234 256 333 281 269 327 283 275 301 283 245 185 244 238 234 257 267 264 254 233 195 170 185 216 215 203 188 174 169 167 164 167 177 192 207 208 209 221 236 243 246 249 261 274 274 275 285 293 298 301 300 297 297
167 171 179 178 174 172 149 46 18 2 204 185 175 187 15 57 146 173 175 194 222 211 189 208 237 219 195 213 251 252 210 190 185 213 216 230 269 217 216 256 269 258 260 256 226 187 263 260 251 259 264 266 258 232 184 172 202 217 198 177 171 170 167 170 185 194 195 199 213 219 217 211 207 210 228 242 257 278 281 281 290 299 305 308 307 306 306
180 174 189 245 264 267 278 291 283 241 218 18 33 140 256 287 233 196 174 218 243 239 200 190 231 259 218 199 215 244 232 194 167 181 195 208 300 187 222 243 281 268 250 253 30 66 269 273 270 256 262 276 272 239 191 186 205 198 176 167 167 170 174 180 193 199 195 191 214 229 227 216 207 213 231 243 255 274 280 285 298 308 312 312 310 310 312
180 186 247 290 289 283 286 300 292 163 124 50 339 309 294 262 257 260 206 206 223 249 226 202 216 240 228 197 194 219 224 171 110 104 199 227 252 175 223 265 4 244 244 248 82 115 252 275 268 260 283 304 294 248 202 201 206 190 180 180 174 174 179 180 185 195 194 189 196 217 225 217 213 224 238 250 265 281 289 296 307 314 316 317 317 319 322
195 227 291 313 306 288 302 50 27 60 63 60 39 344 319 296 284 284 267 254 246 240 241 241 260 291 273 224 198 211 142 106 100 91 215 227 231 219 302 310 269 233 249 321 64 172 224 233 245 265 296 314 299 250 213 212 214 195 186 189 184 179 178 174 176 190 195 190 193 210 221 218 218 228 240 252 269 290 301 311 319 321 321 322 326 331 338
177 308 346 345 324 57 61 2 324 79 65 324 214 182 279 292 299 304 285 275 261 237 236 231 215 343 299 266 205 177 173 98 93 104 231 226 226 199 204 236 242 242 289 8 10 257 238 219 231 270 303 321 316 286 238 218 221 218 213 205 188 175 170 169 173 183 187 184 192 208 218 219 222 229 236 246 266 294 307 316 327 329 326 327 335 346 353
130 41 37 20 337 348 65 18 342 114 186 240 211 166 185 257 270 266 257 240 227 256 274 270 208 233 271 277 236 182 227 55 57 256 219 115 346 254 219 224 244 249 256 297 299 297 279 267 274 301 314 321 333 350 27 129 200 260 257 230 197 172 162 163 170 178 179 179 188 204 214 215 216 223 233 245 266 300 314 323 335 337 333 336 352 3 4
132 100 96 84 311 294 120 106 293 238 200 209 197 178 189 213 233 242 241 229 235 263 279 280 257 238 257 275 269 175 106 79 75 264 115 90 246 255 237 105 10 22 21 320 300 270 256 270 295 322 318 307 315 340 38 143 215 264 262 231 205 188 171 165 170 180 183 179 180 194 204 205 212 226 236 244 271 316 330 338 348 349 344 346 5 15 14
60 37 93 97 289 294 154 205 229 216 189 187 201 209 210 213 231 246 236 220 234 259 275 283 274 256 258 267 269 285 340 78 145 287 24 93 217 268 358 52 18 260 176 245 256 257 271 291 309 319 317 308 301 293 262 200 225 256 260 243 216 193 177 169 168 170 169 166 165 168 170 173 194 218 221 217 265 341 348 354 2 3 358 359 15 27 25
147 116 104 150 219 227 216 222 228 235 227 219 223 230 230 233 271 272 251 222 227 253 263 268 294 324 314 293 232 241 303 22 357 293 319 91 145 318 5 17 298 265 204 206 237 267 299 309 309 309 311 313 302 282 255 224 227 240 246 244 223 187 170 166 163 159 158 160 163 162 153 145 165 193 194 187 187 358 2 6 11 14 12 13 26 37 34
100 96 119 179 209 230 230 219 209 273 275 267 265 270 261 251 261 268 262 245 245 246 231 199 147 121 283 285 350 42 319 329 337 316 349 41 54 333 316 298 278 270 262 272 294 304 304 302 302 305 307 309 306 294 272 244 233 233 240 261 252 200 168 157 156 158 161 164 166 161 143 123 135 164 172 166 147 32 18 21 26 27 25 27 39 46 41
68 76 146 194 242 273 270 257 269 274 275 283 293 279 261 257 263 263 247 228 246 336 26 47 64 66 290 342 33 19 293 262 108 59 17 358 311 264 276 272 260 263 293 315 315 310 304 303 306 310 309 309 309 305 291 267 242 210 183 238 251 218 172 153 151 158 165 167 164 154 132 110 120 153 165 160 138 79 45 40 38 37 37 44 54 56 49
356 317 228 211 215 231 239 245 268 270 276 288 276 249 229 236 253 252 235 178 58 38 23 321 284 46 34 20 14 318 279 275 65 47 342 281 278 321 305 292 292 304 315 313 304 301 304 306 307 310 309 309 309 306 294 269 236 158 135 162 208 205 170 152 149 156 164 163 156 147 128 103 111 152 162 154 136 103 67 50 44 47 53 59 63 61 54
167 242 252 239 222 220 228 244 250 248 255 264 252 220 194 216 243 248 244 71 67 51 308 223 100 69 44 275 237 333 1 24 35 14 344 340 2 337 302 296 305 314 310 301 297 301 304 303 302 301 302 304 307 306 290 247 201 142 115 121 155 183 170 154 150 156 160 155 148 143 132 115 123 148 152 145 136 118 85 63 59 64 69 70 69 65 59